Location: Roland
(31.1349°N, 85.4372°W)
Time: 21:11:33
(UTC+00:00)

Tiros 1 - Pass Details

Date: 19 April 2021
Orbit: 630 x 664 km, 48.4° (Epoch: 13 May)

Event Time Altitude Azimuth Distance (km) Brightness Sun altitude
Rises 12:26:16 0° 178° (S) 2,940 10.5 15.5°
Reaches altitude 10° 12:30:24 10° 143° (SE) 2,026 10.3 16.4°
Maximum altitude 12:31:40 11° 127° (SE) 1,957 10.6 16.6°
Drops below altitude 10° 12:32:57 10° 111° (ESE) 2,023 11.2 16.9°
Sets 12:37:03 0° 75° (ENE) 2,927 12.1 17.8°
